Date String (YYYY-MM-DD hh:mm:ss) UTC,Instrument flags,Ambient pressure (hPa),Sample flow (lpm),Bypass flow (lpm),Sample temperature (°C),Ambient temperature (°C),ASC tube jacket temperature (°C),LED temperature (°C),Box temperature (°C),Sample RH (%),Span deviation,Mass concentration (μg/m³),Mass concentration (μg/m³),Mass concentration (μg/m³)
DateTimeUTC,F1_M11,P_M11,Q1_M11,Q2_M11,T1_M11,T2_M11,T3_M11,T4_M11,T5_M11,U1_M11,ZSPAN_M11,X0_M11,X2_M11,X1_M11
2022-11-09 12:00:00,,0819.9,5.00,0.00,25.1,23.3,00.0,33.9,26.9,14.2,0000.0,0013.73,0006.44,0005.10
2022-11-09 12:01:00,,0820.0,5.00,0.00,25.0,23.3,00.0,33.9,26.9,14.2,0000.0,0013.82,0006.50,0005.12
2022-11-09 12:02:00,,0819.9,5.00,0.00,25.1,23.4,00.0,33.9,26.9,14.2,0000.0,0013.70,0006.55,0005.15
2022-11-09 12:03:00,,0819.9,5.00,0.00,25.1,23.3,00.0,33.9,26.9,14.1,0000.0,0014.06,0006.59,0005.17
2022-11-09 12:04:00,,0819.8,5.00,0.00,25.0,23.3,00.0,33.8,26.9,14.1,0000.0,0013.93,0006.54,0005.20
2022-11-09 12:05:00,,0819.8,5.00,0.00,25.0,23.3,00.0,33.8,26.8,14.1,0000.0,0014.28,0006.56,0005.22
2022-11-09 12:06:00,,0819.8,4.99,0.00,25.0,23.2,00.0,33.8,26.8,14.1,0000.0,0014.01,0006.56,0005.21
2022-11-09 12:07:00,,0819.9,5.00,0.00,25.0,23.2,00.0,33.8,26.8,14.1,0000.0,0014.09,0006.56,0005.20
2022-11-09 12:08:00,,0819.8,4.99,0.00,24.9,23.1,00.0,33.8,26.8,14.2,0000.0,0014.69,0006.53,0005.19
2022-11-09 12:09:00,,0819.9,5.01,0.00,24.9,23.1,00.0,33.8,26.7,14.2,0000.0,0015.64,0006.55,0005.18
2022-11-09 12:10:00,,0819.9,5.02,0.00,24.9,23.0,00.0,33.8,26.7,14.2,0000.0,0015.83,0006.57,0005.18
2022-11-09 12:11:00,,0819.9,5.00,0.00,24.9,23.0,00.0,33.8,26.7,14.3,0000.0,0015.41,0006.53,0005.18
2022-11-09 12:12:00,,0819.8,4.99,0.00,24.9,23.0,00.0,33.7,26.7,14.3,0000.0,0015.22,0006.47,0005.18
2022-11-09 12:13:00,,0819.8,5.00,0.00,24.8,23.1,00.0,33.7,26.7,14.3,0000.0,0015.14,0006.43,0005.18
2022-11-09 12:14:00,,0819.7,4.99,0.00,24.8,23.1,00.0,33.7,26.7,14.3,0000.0,0014.64,0006.39,0005.18
2022-11-09 12:15:00,,0819.7,5.00,0.00,24.9,23.1,00.0,33.7,26.7,14.3,0000.1,0014.76,0006.41,0005.18
2022-11-09 12:16:00,,0819.7,4.99,0.00,24.8,23.1,00.0,33.7,26.7,14.3,0000.4,0014.49,0006.35,0005.18
2022-11-09 12:17:00,,0819.7,5.00,0.00,24.8,23.1,00.0,33.7,26.7,14.3,0002.1,0014.48,0006.34,0005.20
2022-11-09 12:18:00,,0819.6,5.00,0.00,24.8,23.1,00.0,33.7,26.7,14.3,0001.1,0014.46,0006.35,0005.22
2022-11-09 12:19:00,,0819.6,5.01,0.00,24.8,23.1,00.0,33.6,26.7,14.3,0002.3,0014.37,0006.36,0005.24
2022-11-09 12:20:00,,0819.7,5.00,0.00,24.8,23.1,00.0,33.6,26.7,14.3,0002.6,0013.96,0006.31,0005.24
2022-11-09 12:21:00,,0819.7,5.00,0.00,24.8,23.1,00.0,33.6,26.7,14.3,0001.8,0014.01,0006.28,0005.25
2022-11-09 12:22:00,,0819.7,4.99,0.00,24.8,23.1,00.0,33.6,26.7,14.3,0000.4,0014.26,0006.35,0005.26
2022-11-09 12:23:00,,0819.7,5.00,0.00,24.8,23.1,00.0,33.6,26.6,14.3,0000.8,0014.48,0006.39,0005.26
2022-11-09 12:24:00,,0819.5,5.00,0.00,24.8,23.1,00.0,33.6,26.7,14.2,0000.4,0014.74,0006.39,0005.26
2022-11-09 12:25:00,,0819.5,5.00,0.00,24.8,23.0,00.0,33.6,26.6,14.2,0000.0,0015.03,0006.42,0005.25
2022-11-09 12:26:00,,0819.5,5.01,0.00,24.7,22.9,00.0,33.6,26.6,14.2,-000.2,0015.14,0006.42,0005.26
2022-11-09 12:27:00,,0819.6,5.01,0.00,24.7,22.9,00.0,33.6,26.6,14.3,-000.5,0015.10,0006.46,0005.26
2022-11-09 12:28:00,,0819.6,5.00,0.00,24.7,22.9,00.0,33.6,26.5,14.3,-000.9,0014.65,0006.51,0005.27
2022-11-09 12:29:00,,0819.7,5.00,0.00,24.7,22.9,00.0,33.5,26.6,14.3,-001.5,0014.85,0006.57,0005.28
2022-11-09 12:30:00,,0819.7,4.99,0.00,24.7,22.9,00.0,33.5,26.6,14.3,-001.4,0014.76,0006.60,0005.28
2022-11-09 12:31:00,,0819.7,5.00,0.00,24.7,22.9,00.0,33.5,26.5,14.4,-001.2,0014.17,0006.63,0005.28
2022-11-09 12:32:00,,0819.7,5.00,0.00,24.7,22.9,00.0,33.5,26.5,14.4,-001.2,0013.79,0006.65,0005.28
2022-11-09 12:33:00,,0819.6,5.00,0.00,24.7,22.9,00.0,33.5,26.5,14.4,-000.9,0014.04,0006.67,0005.29
2022-11-09 12:34:00,,0819.5,5.01,0.00,24.6,22.9,00.0,33.5,26.5,14.4,-001.0,0014.31,0006.69,0005.30
2022-11-09 12:35:00,,0819.6,5.01,0.00,24.6,22.9,00.0,33.5,26.5,14.4,-001.2,0014.87,0006.72,0005.30
2022-11-09 12:36:00,,0819.5,4.99,0.00,24.6,22.8,00.0,33.5,26.5,14.5,-000.5,0014.85,0006.71,0005.32
2022-11-09 12:37:00,,0819.6,5.00,0.00,24.6,22.8,00.0,33.4,26.4,14.5,0000.0,0014.74,0006.74,0005.33
2022-11-09 12:38:00,,0819.6,4.99,0.00,24.5,22.7,00.0,33.4,26.4,14.5,0000.0,0014.86,0006.73,0005.33
2022-11-09 12:39:00,,0819.7,5.01,0.00,24.5,22.7,00.0,33.4,26.4,14.5,0000.0,0015.44,0006.75,0005.33
2022-11-09 12:40:00,,0819.7,5.01,0.00,24.5,22.7,00.0,33.4,26.3,14.5,0000.0,0015.14,0006.70,0005.32
2022-11-09 12:41:00,,0819.7,5.01,0.00,24.5,22.7,00.0,33.4,26.3,14.6,-000.3,0014.71,0006.65,0005.31
2022-11-09 12:42:00,,0819.6,4.99,0.00,24.5,22.7,00.0,33.4,26.3,14.6,-000.2,0014.75,0006.62,0005.30
2022-11-09 12:43:00,,0819.6,5.00,0.00,24.5,22.7,00.0,33.3,26.3,14.6,0000.0,0014.71,0006.59,0005.30
2022-11-09 12:44:00,,0819.5,4.99,0.00,24.5,22.7,00.0,33.3,26.3,14.6,0000.0,0015.03,0006.54,0005.29
2022-11-09 12:45:00,,0819.4,5.01,0.00,24.4,22.6,00.0,33.3,26.3,14.6,0000.0,0015.26,0006.54,0005.30
2022-11-09 12:46:00,,0819.4,5.00,0.00,24.4,22.5,00.0,33.3,26.3,14.7,0000.1,0014.65,0006.53,0005.29
2022-11-09 12:47:00,,0819.5,5.00,0.00,24.4,22.5,00.0,33.3,26.2,14.7,0000.8,0014.73,0006.52,0005.27
2022-11-09 12:48:00,,0819.6,5.00,0.00,24.4,22.5,00.0,33.3,26.2,14.7,0001.0,0015.01,0006.53,0005.26
2022-11-09 12:49:00,,0819.7,5.00,0.00,24.3,22.5,00.0,33.2,26.2,14.7,0000.7,0014.66,0006.51,0005.25
2022-11-09 12:50:00,,0819.6,5.00,0.00,24.3,22.5,00.0,33.2,26.2,14.7,0001.0,0013.93,0006.46,0005.24
2022-11-09 12:51:00,,0819.5,4.99,0.00,24.3,22.6,00.0,33.2,26.2,14.7,0001.0,0014.30,0006.47,0005.24
2022-11-09 12:52:00,,0819.4,5.00,0.00,24.3,22.6,00.0,33.2,26.2,14.7,0000.1,0015.80,0006.54,0005.25
2022-11-09 12:53:00,,0819.4,5.00,0.00,24.3,22.6,00.0,33.2,26.2,14.6,0000.0,0016.32,0006.58,0005.27
2022-11-09 12:54:00,,0819.4,5.00,0.00,24.3,22.7,00.0,33.2,26.2,14.6,-000.1,0016.90,0006.60,0005.29
2022-11-09 12:55:00,,0819.5,5.00,0.00,24.3,22.7,00.0,33.2,26.2,14.6,-000.4,0016.45,0006.61,0005.30
2022-11-09 12:56:00,,0819.5,5.00,0.00,24.3,22.7,00.0,33.2,26.2,14.6,-000.9,0016.12,0006.56,0005.31
2022-11-09 12:57:00,,0819.4,5.00,0.00,24.3,22.7,00.0,33.2,26.2,14.6,-001.3,0016.06,0006.56,0005.32
2022-11-09 12:58:00,,0819.4,5.01,0.00,24.3,22.7,00.0,33.1,26.2,14.6,-001.5,0015.85,0006.55,0005.36
2022-11-09 12:59:00,,0819.4,5.00,0.00,24.3,22.7,00.0,33.1,26.2,14.6,-001.3,0015.82,0006.58,0005.39
